User: anonymous   Login
Location: Keeble Observatory
(37.7625°N, 77.4755°W)
Time: 17:15:23
(UTC-04:00)
Language:

Cosmos 1484 Rocket - Orbit

View from above orbital plane
View from above orbital plane
View from above satellite
View from above satellite

Ground track
Ground track

The orbit data is extracted from the following two-line orbital elements,

1 14208U 83075B   14295.45963901  .00004862  00000-0  31886-3 0  1560
2 14208 097.4114 327.7672 0041195 225.1622 134.6257 15.07434450701376
Epoch (UTC): 22 October 2014 11:01:52
Eccentricity: 0.0041195
inclination: 97.4114°
perigee height: 515 km
apogee height: 572 km
right ascension of ascending node: 327.7672°
argument of perigee: 225.1622°
revolutions per day: 15.07434450
mean anomaly at epoch: 134.6257°
orbit number at epoch: 70137

The dashed part of the orbit path shows where the satellite is in the earth's shadow,  

DLR